Regional Weather Roundup
Issued by NWS

Home | Current Version | Previous Version | Graphics & Text | Print | Product List | Glossary Off
Versions: 1 2 3 4 5 6 7 8 9 10 11 12 13 14 15 16 17 18 19 20 21 22 23 24 25 26 27 28 29 30 31 32 33 34 35 36 37 38 39 40 41 42 43 44 45 46 47 48 49 50

000
ASUS43 KLSX 310507
RWRMO

WEATHER SUMMARY FOR MISSOURI
NATIONAL WEATHER SERVICE SPRINGFIELD MO
1200 AM CDT TUE MAY 31 2016

NOTE: "FAIR" INDICATES FEW OR NO CLOUDS BELOW 12,000 FEET WITH NO
       SIGNIFICANT WEATHER AND/OR OBSTRUCTIONS TO VISIBILITY.
       CURRENT SKY AND/OR WEATHER CONDITIONS ARE NOT AVAILABLE FOR
       CHILLICOTHE AND FARMINGTON.

MOZ001>031-035>038-043-044-053-054-310600-
...NORTHERN AND WESTERN MISSOURI...

CITY           SKY/WX    TMP DP  RH WIND       PRES   REMARKS
KANSAS CTY INT CLEAR     62  58  86 S8        29.96F
KANSAS C DTWN  CLEAR     68  59  73 S7        29.96S
LEE`S SUMMIT   CLEAR     65  60  84 SW8       29.98R
ST JOSEPH      CLEAR     66  60  81 S5        29.96R
CHILLICOTHE      N/A     64  61  90 CALM      29.98S
KIRKSVILLE     PTCLDY    63  60  90 CALM      29.98F

$$
MOZ066>068-077>081-088>096-101>105-310600-
...SOUTHWEST MISSOURI...

CITY           SKY/WX    TMP DP  RH WIND       PRES   REMARKS
SPRINGFIELD    CLOUDY    66  62  87 S6        29.98F
JOPLIN         CLOUDY    66  63  90 E8        29.96F

$$
MOZ032>034-039>042-045>050-055>058-069>072-310600-
...CENTRAL MISSOURI...

CITY           SKY/WX    TMP DP  RH WIND       PRES   REMARKS
COLUMBIA       PTCLDY    65  62  90 CALM      29.97F
JEFFERSON CITY MOCLDY    66  63  90 SE3       29.97F
ROLLA          CLOUDY    64  61  90 SE6       29.97F
SEDALIA        MOCLDY    64  61  90 S5        29.98S
WHITEMAN AFB   CLEAR     62  62  99 S6        29.95F
WARRENSBURG    CLEAR     61  59  94 W5        29.96S

$$
MOZ051-052-059>065-310600-
...EAST CENTRAL MISSOURI...

CITY           SKY/WX    TMP DP  RH WIND       PRES   REMARKS
ST LOUIS INTL  CLOUDY    73  62  68 CALM      29.99S
SPIRIT OF STL  CLOUDY    67  65  93 CALM      29.97F
ST CHARLES     CLOUDY    73  62  68 W6        29.97F

$$
MOZ072>076-082>087-097>100-106>115-310600-
...SOUTH CENTRAL AND SOUTHEAST MISSOURI...

CITY           SKY/WX    TMP DP  RH WIND       PRES   REMARKS
CAPE GIRARDEAU MOCLDY    69  67  93 CALM      29.97S
FARMINGTON     CLOUDY    67  63  87 CALM      30.00F
POPLAR BLUFF   PTCLDY    71  67  87 NW3       29.96F
WEST PLAINS    CLOUDY    65  62  90 CALM      30.01F

$$



USA.gov is the U.S. government's official web portal to all federal, state and local government web resources and services.